If you wish to contribute or participate in the discussions about articles you are invited to join SKYbrary as a registered user

 Actions

Oral Ak Zhol Airport

From SKYbrary Wiki

UARR
Airport
ICAO: UARR – IATA: URA
Summary
Name Oral Ak Zhol Airport
Region Asia and Pacific
Territory Kazakhstan KZ.gif
Location Uralsk, West Kazakhstan
Serving Uralsk
Elevation 38.1 m
125 ft
125 ft38.1 m
Coordinates 51° 9' 3.00" N, 51° 32' 35.00" E
Runways
Designator Length Width Surface ROPS
4/22 2400 m7,874.016 ft
42 m137.795 ft
CON yes/yes


METAR
Observation UARR 280000Z 36002MPS CAVOK M06/M07 Q1036 R04/CLRD70 TEMPO 2000 BR SCT006 RMK QFE773/1031
Station Uralsk
Date/Time 28 October 2020 00:00:00
Wind direction 360°
Wind speed kts
Lowest cloud amount scattered clouds
Temperature
Dew point
Humidity 92%
QNH 1036 hPa
Weather condition n/a

Description

Oral Ak Zhol Airport (formerly known as Uralsk Ak Zhol and Podstepnyy during the Soviet era) is an airport in Kazakhstan located 12 km southeast of Oral (Uralsk). It is a small airport servicing medium-sized airliners.